Regional Weather Roundup
Issued by NWS Sterling, VA

Home | Current Version | Previous Version | Graphics & Text | Print | Product List | Glossary On
Versions: 1 2 3 4 5 6 7 8 9 10 11 12 13 14 15 16 17 18 19 20 21 22 23 24 25 26 27 28 29 30 31 32 33 34 35 36 37 38 39 40 41 42 43 44 45 46 47 48 49 50
000
ASUS41 KLWX 291110
RWRLWX

REGIONAL WEATHER ROUNDUP
NATIONAL WEATHER SERVICE BALTIMORE MD/WASHINGTON DC
700 AM EDT FRI AUG 29 2014

Note: "FAIR" indicates few or no clouds below 12,000 feet
with no significant weather and/or obstructions to visibility.
 TC=TEMPERATURE CELSIUS

 * =Non NWS site. Station does not report precipitation (e.g. rain,
    snow, etc.), thunder, or fog.

DCZ001-MDZ009-015-VAZ040>042-051-053>054-291200-
WASHINGTON METRO
  /KDAA//-FT BELVOIR

CITY           SKY/WX    TMP DP  RH WIND       PRES   REMARKS
WASHINGTON NAT PTCLDY    65  50  58 N8        30.18R
DULLES         PTCLDY    54  52  93 CALM      30.19R
ANDREWS AFB    CLEAR     55  49  82 N5        30.18R
QUANTICO       PTCLDY    61  55  81 NW8       30.19R
COLLEGE PARK*  CLEAR     55  55 100 CALM      30.18R
LEESBURG*      CLEAR     55  55 100 CALM      30.20R
MANASSAS*      CLEAR     55  55 100 CALM      30.18R
GAITHERSBURG*  CLEAR     54  48  82 CALM      30.22R

$$

MDZ006>007-011-014-291200-
BALTIMORE METRO

CITY           SKY/WX    TMP DP  RH WIND       PRES   REMARKS
BWI AIRPORT    PTCLDY    58  51  78 VRB5      30.17R
MD SCIENCE CTR   N/A     64  50  60 MISG      30.18R
MARTIN STATE   PTCLDY    57  54  88 CALM      30.18R
ANNAPOLIS      CLEAR     65  55  70 NW6       30.17R
FORT MEADE*    CLEAR     52  50  93 CALM      30.20R

$$

MDZ012-015-019>023-291200-
MARYLAND EASTERN SHORE

CITY           SKY/WX    TMP DP  RH WIND       PRES   REMARKS
OCEAN CITY     CLEAR     59  55  87 NW6       30.14R
SALISBURY      CLEAR     59  53  80 CALM      30.15R
BAY BRIDGE AP*   N/A     63  50  63 NE5       30.17R
CAMBRIDGE*     CLEAR     61  52  72 N5        30.16R
EASTON*        PTCLDY    55  54  94 CALM      30.20R

$$

MDZ017>025-291200-
SOUTHERN MARYLAND

CITY           SKY/WX    TMP DP  RH WIND       PRES   REMARKS
PATUXENT RIVER PTCLDY    63  52  67 NE9       30.16R
ST INIGOES     CLEAR     61  53  75 N3        30.15R
LEONARDTOWN*   CLEAR     61  52  72 CALM      30.18R

$$

MDZ003>005-291200-
NORTH CENTRAL MARYLAND

CITY           SKY/WX    TMP DP  RH WIND       PRES   REMARKS
FREDERICK*     CLEAR     55  55 100 CALM        N/A
HAGERSTOWN APT CLEAR     56  50  80 CALM      30.19R
WESTMINSTER*   CLEAR     55  52  88 CALM      30.19R

$$

MDZ501>502-291200-
WESTERN MARYLAND

CITY           SKY/WX    TMP DP  RH WIND       PRES   REMARKS
OAKLAND*       CLEAR     50 N/A N/A SE9       30.21R
CUMBERLAND*    CLEAR     52  50  93 CALM      30.25R

$$

VAZ025>031-291200-
SHENANDOAH VALLEY

CITY           SKY/WX    TMP DP  RH WIND       PRES   REMARKS
WINCHESTER*    CLEAR     54  50  87 CALM      30.20R
STAUNTON*      CLEAR     58  55  88 CALM      30.21R

$$

WVZ021-048>050-054>055-291200-
EASTERN WEST VIRGINIA PANHANDLE

CITY           SKY/WX    TMP DP  RH WIND       PRES   REMARKS
MARTINSBURG    CLEAR     53  48  83 CALM      30.19R
PETERSBURG*    NOT AVBL

$$

VAZ036>039-050-291200-
CENTRAL FOOTHILLS

CITY           SKY/WX    TMP DP  RH WIND       PRES   REMARKS
CHARLOTTESVILL CLEAR     60  54  80 N5        30.18R
ORANGE*        MOCLDY    59  54  82 N5        30.20R

$$

VAZ055>057-291200-
NORTH AND CENTRAL PIEDMONT

CITY           SKY/WX    TMP DP  RH WIND       PRES   REMARKS
FREDERICKSBRG* CLEAR     61  57  85 N5        30.17R
STAFFORD*      CLEAR     55  55 100 N3        30.21R

$$

NCZ024-NYZ072-PAZ021-071-VAZ022-071-291200-
OTHER REGIONAL OBSERVATIONS

CITY           SKY/WX    TMP DP  RH WIND       PRES   REMARKS
NEW YORK CITY  CLEAR     61  51  70 CALM      30.17R
PHILADELPHIA   MOCLDY    62  50  64 N7        30.17R
PITTSBURGH     PTCLDY    51  49  92 CALM      30.17R
ROANOKE        CLOUDY    66  55  67 CALM      30.19R
RICHMOND       MOCLDY    66  58  75 N9        30.14R
RALEIGH        CLOUDY    73  69  87 NE8       30.09R FOG

$$

ANZ530>537-291200-
MARINE OBSERVATIONS

STATION/POSITION TIME  TEMP    WIND        PRES
                       AIR SEA DIR/SP/G
                 (UTC) (F)     (DEG/KT/KT) (MB)
THOMAS PT LIGHT  1100   68 78   60/ 12/ 13 1022.5R
BALT KEY BRIDGE  1100   70     350/  7/ 10 1021.2R
COVE POINT       1100   66      50/ 12/ 16 1021.0R
LEWISETTA        1100   70 78   60/  9/ 12 1020.6R
SOLOMONS ISLAND  1100      79                N/A
PINEY POINT      1100           70/  7/  8   N/A

$$




USA.gov is the U.S. government's official web portal to all federal, state and local government web resources and services.